Location: Radomski Observatory
(40.2854°N, 79.5145°W)
Time: 05:46:31
(UTC-04:00)

Cosmos 1072 Rocket - Visible Passes

Search period start: 20 October 2014 00:00
Search period end: 30 October 2014 00:00
Orbit: 949 x 1008 km, 82.9° (Epoch: 19 October)

Date Brightness Start Highest point End Pass type
(mag) Time Alt. Az. Time Alt. Az. Time Alt. Az.
20 Oct 7.3 03:54:03 10° E 03:56:14 12° ENE 03:58:25 10° ENE visible
20 Oct 4.5 05:34:14 10° S 05:40:38 86° E 05:47:05 10° N visible
21 Oct 6.6 04:17:18 10° SE 04:22:09 23° E 04:27:01 10° NE visible
21 Oct 4.6 06:00:55 10° SSW 06:07:08 53° W 06:13:24 10° N visible
22 Oct 5.6 04:42:18 10° SSE 04:48:16 43° E 04:54:15 10° NNE visible
22 Oct 5.3 06:28:22 10° SW 06:33:50 29° WNW 06:39:20 10° NNW visible
23 Oct 7.3 03:29:14 10° E 03:30:14 10° ENE 03:31:15 10° ENE visible
23 Oct 4.6 05:08:44 13° S 05:14:33 79° E 05:20:58 10° N visible
23 Oct 5.9 06:56:57 10° WSW 07:00:44 16° WNW 07:04:33 10° NNW visible
24 Oct 6.6 03:53:12 16° ESE 03:56:08 21° E 04:00:43 10° NE visible
24 Oct 4.5 05:38:05 32° SW 05:41:01 58° W 05:47:20 10° N visible
25 Oct 5.7 04:21:21 37° ESE 04:22:12 39° E 04:28:03 10° NNE visible
25 Oct 5.2 06:06:12 29° W 06:07:41 32° WNW 06:13:20 10° NNW visible
26 Oct 4.7 04:49:01 68° ENE 04:49:01 68° ENE 04:54:50 10° NNE visible
26 Oct 5.8 06:33:51 18° WNW 06:34:33 18° WNW 06:38:43 10° NNW visible
27 Oct 6.8 03:31:37 18° ENE 03:31:37 18° ENE 03:34:21 10° NE visible
27 Oct 4.9 05:16:25 50° NNW 05:16:25 50° NNW 05:21:16 10° N visible
28 Oct 6.4 03:58:50 25° NE 03:58:50 25° NE 04:01:50 10° NNE visible
28 Oct 5.5 05:43:37 29° NW 05:43:37 29° NW 05:47:19 10° N visible
29 Oct 6.1 04:25:54 28° NNE 04:25:54 28° NNE 04:28:41 10° NNE visible
29 Oct 6.1 06:10:42 16° NW 06:10:42 16° NW 06:12:51 10° NNW visible
